THY8DE LTFM-KSEA

Flight info

Callsign THY8DE
Flight time N/A
Altitude 36000
Route IBLAX P727 BGS L622 GONGO DCT KOMAN DCT KARIL DCT KENIN DCT LENOV DCT ROGAL DCT ARKUG DCT LUSID DCT DEGAV DCT EMLER DCT UMBOR/N0486F380 DCT 65N000E/M085F380 68N010W 70N020W 72N040W 72N060W DCT INGUM/N0499F400 DCT 70N082W 67N100W 63N110W DCT YOJ DCT 54N120W DCT YVR
Aircraft A359/H-SDE2E3GHIJ3J4J5LM1ORWXY/LB1D1

Departure

Time N/A
Airport İstanbul Airport (LTFM)

Arrival

Time 2026-05-01 11:29
Airport Seattle–Tacoma International Airport (KSEA)
Time Latitude Longitude Altitude Speed Heading
2026-05-01 11:08 48.68539 -122.96563 35339 ft 495 kts 165°
2026-05-01 11:09 48.65223 -122.95028 34378 ft 502 kts 165°
2026-05-01 11:09 48.61869 -122.93477 33408 ft 506 kts 165°
2026-05-01 11:09 48.58501 -122.91920 32513 ft 507 kts 164°
2026-05-01 11:10 48.51768 -122.88813 30666 ft 511 kts 164°
2026-05-01 11:10 48.48356 -122.87242 29632 ft 514 kts 163°
2026-05-01 11:10 48.44947 -122.85672 28857 ft 510 kts 163°
2026-05-01 11:10 48.41574 -122.84121 28124 ft 504 kts 163°
2026-05-01 11:11 48.38232 -122.82587 27417 ft 499 kts 163°
2026-05-01 11:11 48.34924 -122.81071 26713 ft 494 kts 163°
2026-05-01 11:11 48.31649 -122.79573 26104 ft 488 kts 163°
2026-05-01 11:11 48.28437 -122.78105 25864 ft 481 kts 163°
2026-05-01 11:12 48.25278 -122.76663 25612 ft 481 kts 163°
2026-05-01 11:12 48.22081 -122.75207 25370 ft 479 kts 163°
2026-05-01 11:12 48.18897 -122.73757 25127 ft 478 kts 163°
2026-05-01 11:12 48.15723 -122.72314 24900 ft 476 kts 163°
2026-05-01 11:13 48.12559 -122.70878 24663 ft 474 kts 163°
2026-05-01 11:13 48.09410 -122.69461 24486 ft 472 kts 163°
2026-05-01 11:13 48.06195 -122.68449 24472 ft 472 kts 173°
2026-05-01 11:13 48.02919 -122.68297 24467 ft 471 kts 185°
2026-05-01 11:14 47.99710 -122.69168 24440 ft 468 kts 197°
2026-05-01 11:14 47.96661 -122.70369 24431 ft 450 kts 190°
2026-05-01 11:14 47.93603 -122.70509 24369 ft 434 kts 173°
2026-05-01 11:14 47.90718 -122.69425 24049 ft 425 kts 159°
2026-05-01 11:15 47.88012 -122.67711 23469 ft 423 kts 155°
2026-05-01 11:15 47.85337 -122.65900 22791 ft 421 kts 155°
2026-05-01 11:15 47.82683 -122.64089 22131 ft 419 kts 155°
2026-05-01 11:15 47.80038 -122.62280 21495 ft 417 kts 155°
2026-05-01 11:16 47.77419 -122.60480 21000 ft 411 kts 155°
2026-05-01 11:16 47.74827 -122.58698 20308 ft 411 kts 155°
2026-05-01 11:16 47.72263 -122.56931 19590 ft 412 kts 155°
2026-05-01 11:16 47.69725 -122.55178 18879 ft 392 kts 155°
2026-05-01 11:17 47.69015 -122.54686 18694 ft 386 kts 155°
2026-05-01 11:17 47.67161 -122.53400 18307 ft 368 kts 155°
2026-05-01 11:17 47.64914 -122.51839 17801 ft 346 kts 155°
2026-05-01 11:17 47.62785 -122.50359 17292 ft 331 kts 155°
2026-05-01 11:18 47.60721 -122.48924 16704 ft 325 kts 155°
2026-05-01 11:18 47.58683 -122.47507 16072 ft 322 kts 155°
2026-05-01 11:18 47.56634 -122.46308 15459 ft 320 kts 165°
2026-05-01 11:18 47.54460 -122.45753 14839 ft 316 kts 174°
2026-05-01 11:19 47.52288 -122.45431 14268 ft 313 kts 175°
2026-05-01 11:19 47.50132 -122.45142 13529 ft 310 kts 175°
2026-05-01 11:19 47.47994 -122.44865 12619 ft 306 kts 175°
2026-05-01 11:19 47.45883 -122.44594 11733 ft 303 kts 175°
2026-05-01 11:20 47.43799 -122.44329 10870 ft 299 kts 175°
2026-05-01 11:20 47.41734 -122.44070 10030 ft 296 kts 175°
2026-05-01 11:20 47.39696 -122.43821 9121 ft 292 kts 175°
2026-05-01 11:20 47.37703 -122.43581 8445 ft 282 kts 175°
2026-05-01 11:21 47.35799 -122.43358 7830 ft 274 kts 175°
2026-05-01 11:21 47.33930 -122.43145 7223 ft 265 kts 175°
2026-05-01 11:21 47.32130 -122.42947 6782 ft 252 kts 175°
2026-05-01 11:21 47.30434 -122.42763 6426 ft 238 kts 175°
2026-05-01 11:22 47.28817 -122.42590 6048 ft 228 kts 175°
2026-05-01 11:22 47.27241 -122.42423 5683 ft 226 kts 175°
2026-05-01 11:22 47.25674 -122.42256 5301 ft 226 kts 175°
2026-05-01 11:22 47.24110 -122.42088 4820 ft 225 kts 175°
2026-05-01 11:23 47.22555 -122.41919 4354 ft 224 kts 175°
2026-05-01 11:23 47.21045 -122.41465 4047 ft 223 kts 153°
2026-05-01 11:23 47.19919 -122.39996 3989 ft 223 kts 121°
2026-05-01 11:23 47.19499 -122.37852 3987 ft 220 kts 89°
2026-05-01 11:24 47.19931 -122.35721 3987 ft 221 kts 57°
2026-05-01 11:24 47.21061 -122.34214 4011 ft 222 kts 31°
2026-05-01 11:24 47.23874 -122.32297 3998 ft 225 kts 17°
2026-05-01 11:25 47.25416 -122.31970 4001 ft 225 kts
2026-05-01 11:25 47.28550 -122.31978 3994 ft 225 kts
2026-05-01 11:25 47.30119 -122.31959 3994 ft 225 kts
2026-05-01 11:26 47.31679 -122.31927 3739 ft 231 kts
2026-05-01 11:26 47.35057 -122.31858 2523 ft 233 kts
2026-05-01 11:26 47.36628 -122.31865 2403 ft 221 kts
2026-05-01 11:27 47.38206 -122.31867 1233 ft 234 kts
2026-05-01 11:27 47.39743 -122.31842 1066 ft 209 kts
2026-05-01 11:27 47.41137 -122.31832 830 ft 194 kts 359°
2026-05-01 11:27 47.42443 -122.31842 693 ft 185 kts 360°
2026-05-01 11:28 47.43708 -122.31824 483 ft 180 kts
2026-05-01 11:28 47.44929 -122.31794 395 ft 169 kts 357°
2026-05-01 11:28 47.45722 -122.31778 412 ft 66 kts 357°
2026-05-01 11:29 47.46063 -122.31754 414 ft 14 kts 14°
2026-05-01 11:29 47.46145 -122.31718 413 ft 16 kts 21°
2026-05-01 11:29 47.46321 -122.31570 417 ft 5 kts 36°
2026-05-01 11:30 47.46342 -122.31546 415 ft 10 kts 41°
2026-05-01 11:30 47.46365 -122.31409 421 ft 19 kts 98°
2026-05-01 11:30 47.46324 -122.31344 429 ft 6 kts 174°
2026-05-01 11:31 47.46197 -122.31347 425 ft 23 kts 181°
2026-05-01 11:31 47.46061 -122.31341 420 ft 2 kts 156°
2026-05-01 11:31 47.46023 -122.31297 425 ft 3 kts 119°
2026-05-01 11:31 47.46023 -122.31296 425 ft 0 kts 117°
2026-05-01 11:32 47.46011 -122.31160 425 ft 28 kts 91°
2026-05-01 11:32 47.46011 -122.30898 431 ft 17 kts 90°
2026-05-01 11:32 47.46011 -122.30720 433 ft 17 kts 92°
2026-05-01 11:32 47.45961 -122.30625 431 ft 9 kts 159°
2026-05-01 11:33 47.45862 -122.30620 435 ft 22 kts 181°
2026-05-01 11:33 47.45665 -122.30622 431 ft 33 kts 180°
2026-05-01 11:33 47.45423 -122.30623 419 ft 33 kts 180°
2026-05-01 11:33 47.45180 -122.30626 417 ft 37 kts 180°
2026-05-01 11:34 47.44975 -122.30627 409 ft 28 kts 180°
2026-05-01 11:34 47.44807 -122.30628 412 ft 18 kts 181°
2026-05-01 11:34 47.44661 -122.30630 407 ft 23 kts 180°
2026-05-01 11:34 47.44497 -122.30632 402 ft 22 kts 182°
2026-05-01 11:35 47.44350 -122.30632 395 ft 22 kts 179°
2026-05-01 11:35 47.44180 -122.30635 392 ft 26 kts 181°
2026-05-01 11:35 47.44011 -122.30624 390 ft 7 kts 150°
2026-05-01 11:35 47.43981 -122.30557 391 ft 9 kts 135°
2026-05-01 11:36 47.43934 -122.30543 390 ft 8 kts 177°
2026-05-01 11:36 47.43866 -122.30529 389 ft 6 kts 151°
2026-05-01 11:36 47.43851 -122.30491 390 ft 2 kts 98°
2026-05-01 11:36 47.43854 -122.30441 391 ft 0 kts 83°
2026-05-01 11:37 47.43854 -122.30440 391 ft 0 kts 83°
2026-05-01 11:37 47.43856 -122.30423 391 ft 2 kts 83°
2026-05-01 11:37 47.43857 -122.30412 391 ft 0 kts 82°
2026-05-01 11:42 41.26788 28.73442 325 ft 0 kts 179°